TimeADT,TemperatureF,Dew PointF,Humidity,Sea Level PressureIn,VisibilityMPH,Wind Direction,Wind SpeedMPH,Gust SpeedMPH,PrecipitationIn,Events,Conditions,WindDirDegrees,DateUTC
12:00 AM,62,54,69,29.99,9,South,12.7,,,,Overcast,180,2012-10-07 03:00:00
12:00 AM,62.6,53.6,72,29.99,9.0,South,12.7,-,N/A,,Overcast,180,2012-10-07 03:00:00
2:00 AM,62.6,57.2,82,29.98,9.0,South,15.0,20.7,N/A,,Overcast,170,2012-10-07 05:00:00
3:00 AM,63,57,74,29.97,9,South,15.0,,,,Overcast,180,2012-10-07 06:00:00
3:00 AM,62.6,57.2,82,29.97,9.0,South,13.8,19.6,N/A,,Overcast,180,2012-10-07 06:00:00
4:00 AM,62.6,57.2,82,29.96,9.0,South,16.1,-,N/A,,Partly Cloudy,170,2012-10-07 07:00:00
5:00 AM,62.6,57.2,82,29.95,9.0,South,17.3,-,N/A,,Mostly Cloudy,180,2012-10-07 08:00:00
6:00 AM,62,58,84,29.95,9,South,16.1,,,,,180,2012-10-07 09:00:00
6:00 AM,62.6,59.0,88,29.95,9.0,South,16.1,-,N/A,,Clear,180,2012-10-07 09:00:00
7:00 AM,62.6,59.0,88,29.96,9.0,South,16.1,-,N/A,,Partly Cloudy,180,2012-10-07 10:00:00
8:00 AM,64.4,59.0,83,29.97,9.0,South,15.0,-,N/A,,Partly Cloudy,180,2012-10-07 11:00:00
9:00 AM,65,60,81,29.98,9,South,13.8,,,,,180,2012-10-07 12:00:00
9:00 AM,64.4,60.8,88,29.98,9.0,South,15.0,-,N/A,,Clear,180,2012-10-07 12:00:00
10:00 AM,66.2,60.8,83,29.99,9.0,South,15.0,-,N/A,,Clear,180,2012-10-07 13:00:00
11:00 AM,68.0,62.6,83,29.99,9.0,South,15.0,-,N/A,,Clear,180,2012-10-07 14:00:00
12:00 PM,67,62,79,30.00,9,South,11.5,,,,,190,2012-10-07 15:00:00
12:00 PM,66.2,62.6,88,30.00,9.0,South,11.5,-,N/A,,Mostly Cloudy,190,2012-10-07 15:00:00
1:00 PM,68.0,62.6,83,29.99,9.0,South,12.7,-,N/A,,Mostly Cloudy,190,2012-10-07 16:00:00
2:00 PM,68.0,62.6,83,29.99,9.0,SSW,12.7,-,N/A,,Scattered Clouds,200,2012-10-07 17:00:00
3:00 PM,68,63,80,29.99,7,SSW,12.7,,,,,210,2012-10-07 18:00:00
3:00 PM,68.0,62.6,83,29.99,8.0,SSW,11.5,-,N/A,,Clear,210,2012-10-07 18:00:00
4:00 PM,68.0,62.6,83,30.00,8.0,SW,10.4,-,N/A,,Unknown,220,2012-10-07 19:00:00
5:00 PM,66.2,62.6,88,30.00,7.0,SSW,5.8,-,N/A,,Partly Cloudy,210,2012-10-07 20:00:00
6:00 PM,64,62,90,30.02,6,SW,6.9,,,,,220,2012-10-07 21:00:00
6:00 PM,64.4,62.6,94,30.02,6.0,SW,6.9,-,N/A,,Clear,220,2012-10-07 21:00:00
7:00 PM,62.6,60.8,94,30.03,3.0,West,3.5,-,N/A,,Clear,260,2012-10-07 22:00:00
7:20 PM,62.6,60.8,94,30.03,2.5,WSW,3.5,-,N/A,,Partly Cloudy,250,2012-10-07 22:20:00
7:22 PM,62.6,60.8,94,30.03,2.1,WSW,3.5,-,N/A,,Mostly Cloudy,250,2012-10-07 22:22:00
7:33 PM,64.4,62.6,94,30.04,2.5,West,6.9,-,N/A,,Overcast,270,2012-10-07 22:33:00
7:40 PM,64.4,62.6,94,30.04,2.5,West,4.6,-,N/A,,Overcast,280,2012-10-07 22:40:00
7:41 PM,64.4,62.6,94,30.04,3.0,WNW,4.6,-,N/A,,Overcast,290,2012-10-07 22:41:00
7:42 PM,64.4,62.6,94,30.04,1.5,WNW,4.6,-,N/A,,Overcast,290,2012-10-07 22:42:00
7:43 PM,62.6,60.8,94,30.04,1.0,WNW,4.6,-,N/A,,Unknown,290,2012-10-07 22:43:00
7:44 PM,62.6,62.6,100,30.04,0.6,WNW,4.6,-,N/A,,Unknown,290,2012-10-07 22:44:00
7:46 PM,62.6,60.8,94,30.04,0.4,WNW,5.8,-,N/A,,Unknown,300,2012-10-07 22:46:00
7:50 PM,62.6,60.8,94,30.04,0.1,WNW,5.8,-,N/A,,Unknown,290,2012-10-07 22:50:00
8:00 PM,62.6,60.8,94,30.05,0.1,WNW,6.9,-,N/A,,Unknown,300,2012-10-07 23:00:00
8:20 PM,62.6,60.8,94,30.05,0.1,NW,3.5,-,N/A,,Overcast,310,2012-10-07 23:20:00
8:26 PM,62.6,60.8,94,30.05,0.2,Calm,Calm,-,N/A,,Overcast,0,2012-10-07 23:26:00
8:33 PM,62.6,60.8,94,30.05,0.8,NW,2.3,-,N/A,,Overcast,310,2012-10-07 23:33:00
8:37 PM,62.6,60.8,94,30.06,1.5,Calm,Calm,-,N/A,,Overcast,0,2012-10-07 23:37:00
8:40 PM,62.6,60.8,94,30.05,1.5,Calm,Calm,-,N/A,,Overcast,0,2012-10-07 23:40:00
9:00 PM,61,60,96,30.06,2,NW,2.3,,,,Overcast,310,2012-10-08 00:00:00
9:00 PM,60.8,60.8,100,30.06,2.0,NW,2.3,-,N/A,,Overcast,320,2012-10-08 00:00:00
9:08 PM,60.8,59.0,94,30.06,2.1,Calm,Calm,-,N/A,,Partly Cloudy,0,2012-10-08 00:08:00
9:12 PM,60.8,59.0,94,30.06,1.4,Calm,Calm,-,N/A,,Partly Cloudy,0,2012-10-08 00:12:00
9:14 PM,60.8,59.0,94,30.06,1.0,Calm,Calm,-,N/A,,Partly Cloudy,0,2012-10-08 00:14:00
9:15 PM,60.8,59.0,94,30.06,0.6,Calm,Calm,-,N/A,,Partly Cloudy,0,2012-10-08 00:15:00
9:17 PM,59.0,59.0,100,30.06,0.4,Calm,Calm,-,N/A,,Partly Cloudy,0,2012-10-08 00:17:00
9:20 PM,59.0,59.0,100,30.06,0.1,Calm,Calm,-,N/A,,Partly Cloudy,0,2012-10-08 00:20:00
9:32 PM,59.0,59.0,100,30.06,0.5,ESE,3.5,-,N/A,,Clear,110,2012-10-08 00:32:00
9:34 PM,59.0,57.2,94,30.06,1.0,East,3.5,-,N/A,,Clear,100,2012-10-08 00:34:00
9:35 PM,59.0,57.2,94,30.06,1.5,East,3.5,-,N/A,,Clear,100,2012-10-08 00:35:00
9:46 PM,59.0,57.2,94,30.06,1.4,ESE,3.5,-,N/A,,Clear,120,2012-10-08 00:46:00
9:51 PM,59.0,57.2,94,30.06,1.0,ESE,3.5,-,N/A,,Clear,110,2012-10-08 00:51:00
10:00 PM,60.8,59.0,94,30.06,1.0,ESE,5.8,-,N/A,,Partly Cloudy,120,2012-10-08 01:00:00
10:09 PM,60.8,59.0,94,30.06,1.5,ESE,5.8,-,N/A,,Partly Cloudy,120,2012-10-08 01:09:00
10:32 PM,62.6,60.8,94,30.06,2.0,SE,5.8,-,N/A,,Overcast,130,2012-10-08 01:32:00
10:41 PM,62.6,60.8,94,30.06,2.0,SE,4.6,-,N/A,,Overcast,140,2012-10-08 01:41:00
10:43 PM,62.6,60.8,94,30.06,2.0,SSE,5.8,-,N/A,,Overcast,150,2012-10-08 01:43:00
10:52 PM,62.6,60.8,94,30.06,1.4,SE,4.6,-,N/A,,Overcast,140,2012-10-08 01:52:00
10:54 PM,62.6,60.8,94,30.06,1.4,SSE,4.6,-,N/A,,Overcast,150,2012-10-08 01:54:00
11:00 PM,62.6,60.8,94,30.06,1.4,SSE,4.6,-,N/A,,Mostly Cloudy,150,2012-10-08 02:00:00
11:06 PM,62.6,60.8,94,30.06,1.2,SSE,5.8,-,N/A,,Overcast,160,2012-10-08 02:06:00
11:08 PM,62.6,60.8,94,30.06,0.8,SSE,5.8,-,N/A,,Overcast,150,2012-10-08 02:08:00
11:09 PM,62.6,60.8,94,30.06,0.6,SSE,4.6,-,N/A,,Unknown,150,2012-10-08 02:09:00
11:11 PM,62.6,60.8,94,30.06,0.4,SSE,4.6,-,N/A,,Unknown,150,2012-10-08 02:11:00
11:14 PM,62.6,60.8,94,30.06,0.1,SSE,5.8,-,N/A,,Unknown,150,2012-10-08 02:14:00